TimeMST,TemperatureF,Dew PointF,Humidity,Sea Level PressureIn,VisibilityMPH,Wind Direction,Wind SpeedMPH,Gust SpeedMPH,PrecipitationIn,Events,Conditions,WindDirDegrees,DateUTC
12:53 AM,10.0,1.0,67,30.07,10.0,Variable,3.5,-,N/A,,Clear,0,2013-02-11 07:53:00
1:53 AM,9.0,1.0,70,30.08,10.0,Variable,4.6,-,N/A,,Clear,0,2013-02-11 08:53:00
2:53 AM,8.1,1.0,73,30.06,10.0,WNW,3.5,-,N/A,,Clear,290,2013-02-11 09:53:00
3:53 AM,7.0,-0.0,73,30.08,10.0,West,9.2,-,N/A,,Clear,260,2013-02-11 10:53:00
4:53 AM,7.0,-0.0,73,30.09,10.0,West,3.5,-,N/A,,Clear,260,2013-02-11 11:53:00
5:53 AM,6.1,-0.0,76,30.11,10.0,West,4.6,-,N/A,,Clear,270,2013-02-11 12:53:00
6:53 AM,6.1,-0.0,76,30.12,10.0,West,4.6,-,N/A,,Clear,270,2013-02-11 13:53:00
7:53 AM,12.0,3.0,67,30.12,10.0,West,9.2,-,N/A,,Clear,270,2013-02-11 14:53:00
8:53 AM,17.1,5.0,59,30.11,10.0,West,13.8,27.6,N/A,,Clear,280,2013-02-11 15:53:00
9:53 AM,19.0,5.0,54,30.10,10.0,NW,9.2,26.5,N/A,,Clear,310,2013-02-11 16:53:00
10:53 AM,21.0,5.0,50,30.10,10.0,West,10.4,23.0,N/A,,Clear,280,2013-02-11 17:53:00
11:53 AM,23.0,7.0,50,30.07,10.0,West,13.8,23.0,N/A,,Clear,270,2013-02-11 18:53:00
12:53 PM,23.0,9.0,55,30.05,10.0,West,15.0,23.0,N/A,,Clear,270,2013-02-11 19:53:00
1:53 PM,23.0,8.1,53,30.06,10.0,WNW,12.7,25.3,N/A,,Clear,290,2013-02-11 20:53:00
2:53 PM,24.1,8.1,51,30.04,10.0,West,16.1,20.7,N/A,,Clear,260,2013-02-11 21:53:00
3:53 PM,23.0,5.0,46,30.06,10.0,WNW,13.8,25.3,N/A,,Clear,300,2013-02-11 22:53:00
4:53 PM,21.0,3.9,48,30.06,10.0,West,6.9,19.6,N/A,,Clear,270,2013-02-11 23:53:00
5:53 PM,17.1,1.0,50,30.09,10.0,WSW,5.8,-,N/A,,Clear,250,2013-02-12 00:53:00
6:53 PM,15.1,3.0,59,30.09,10.0,West,6.9,-,N/A,,Clear,260,2013-02-12 01:53:00
7:53 PM,16.0,3.9,59,30.07,10.0,West,9.2,-,N/A,,Clear,280,2013-02-12 02:53:00
8:53 PM,14.0,3.0,62,30.06,10.0,West,6.9,-,N/A,,Clear,270,2013-02-12 03:53:00
9:53 PM,14.0,3.0,62,30.05,10.0,WSW,6.9,-,N/A,,Clear,250,2013-02-12 04:53:00
10:53 PM,14.0,3.9,64,30.03,10.0,West,5.8,-,N/A,,Clear,260,2013-02-12 05:53:00
11:53 PM,15.1,3.0,59,30.03,10.0,WSW,5.8,-,N/A,,Clear,250,2013-02-12 06:53:00